Regional Weather Roundup
Issued by NWS

Home | Current Version | Previous Version | Text Only | Print | Product List | Glossary Off
Versions: 1 2 3 4 5 6 7 8 9 10 11 12 13 14 15 16 17 18 19 20 21 22 23 24 25 26 27 28 29 30 31 32 33 34 35 36 37 38 39 40 41 42 43 44 45 46 47 48 49 50

223
ASUS44 KLIX 031501
RWRLA
LOUISIANA WEATHER ROUNDUP
NATIONAL WEATHER SERVICE NEW ORLEANS LA
900 AM CST TUE MAR 03 2015

NOTE: "FAIR" INDICATES FEW OR NO CLOUDS BELOW 12,000 FEET WITH NO
      SIGNIFICANT WEATHER AND/OR OBSTRUCTIONS TO VISIBILITY.
      SKY/WX - SKY CONDITION AND SIGNIFICANT WEATHER.
      TMP - AIR TEMPERATURE.    DP   - DEWPOINT TEMPERATURE.
      RH  - RELATIVE HUMIDITY.  PRES - PRESSURE.
      HX  - HEAT INDEX.         WCI  - WIND CHILL INDEX.

*  THESE STATIONS ARE NOT NWS OR FAA STATIONS AND ARE NOT UNDER
   NWS QUALITY CONTROL.

LAZ040-048-061>063-065-066-069-031600-
SOUTHEAST LOUISIANA

CITY           SKY/WX    TMP DP  RH WIND       PRES   REMARKS
N.O. AUDUBON     N/A     69  69 100 MISG        N/A
N.O. INTL ARPT FOG       70  68  93 SE6       30.14R VSB 1/4
N.O. LAKEFRONT CLOUDY    70  67  90 SE10      30.14S FOG
SLIDELL        FOG       67  67 100 SE7       30.14S VSB 1
BATON ROUGE    FOG       66  66 100 E7        30.11S VSB<1/4
BOOTHVILLE     CLOUDY    68  68 100 SE7       30.15S FOG
BELLE CHASSE   PTSUNNY   70  67  90 SE8       30.13S FOG
BOGALUSA*      FOG       67  65  91 S7        30.16S VSB 1
GALLIANO*      MOSUNNY   59  58  97 MISG      30.14R
NEW ROADS*     NOT AVBL
GONZALES*      NOT AVBL
HAMMOND*       NOT AVBL
HOUMA*         NOT AVBL
PORT FOURCHON* NOT AVBL

$$

LAZ041-044-053-054-031600-
SOUTHWEST LOUISIANA

CITY           SKY/WX    TMP DP  RH WIND       PRES   REMARKS
LAKE CHARLES   FOG       60  59  96 E8        30.07S VSB 3/4
LAFAYETTE      FOG       61  61 100 CALM      30.10S VSB<1/4
PATTERSON      MOSUNNY   72  68  88 SE12      30.10S
SALT POINT       N/A     69  68  96 SE12      30.09S
NEW IBERIA     FOG       65  64  97 E6        30.10S VSB 1/2
CHENAULT AIRPK FOG       57  57 100 E3        30.08S VSB 1/2

$$

LAZ027-028-031600-
CENTRAL LOUISIANA

CITY           SKY/WX    TMP DP  RH WIND       PRES   REMARKS
FORT POLK      FOG       56  56  98 SE5       30.07S VSB 1/2
ALEXANDRIA INT FOG       50  50 100 SE6       30.08S VSB 1/4
ALEXANDRIA     CLOUDY    51  50  96 S3        30.10R FOG

$$

LAZ001-002-031600-
NORTHWEST LOUISIANA

CITY           SKY/WX    TMP DP  RH WIND       PRES   REMARKS
SHREVEPORT     FOG       47  46  97 SE5       30.07R VSB 1/16
BARKSDALE AFB  FOG       45  45 100 S6        30.07S VSB 1/4
DTN SHREVEPORT FOG       45  43  93 SE5       30.07S VSB 1/4

$$

LAZ014-016-031600-
NORTHEAST LOUISIANA

CITY           SKY/WX    TMP DP  RH WIND       PRES   REMARKS
MONROE         FOG       46  46 100 CALM      30.10S VSB 1/2
TALLULAH       FOG       51  51 100 CALM      30.10S VSB 3/4

$$




USA.gov is the U.S. government's official web portal to all federal, state and local government web resources and services.